User: anonymous   Login
Location: Sawmill Trailhead
(33.5800°N, 116.4497°W)
Time: 04:29:37
(UTC-08:00)
Language:

Uosat F - Orbit

View from above orbital plane
View from above orbital plane
View from above satellite
View from above satellite

Ground track
Ground track

The orbit data is extracted from the following two-line orbital elements,

1 21575U 91050B   14351.18113553  .00000228  00000-0  86122-4 0  1959
2 21575 098.7212 330.6102 0008312 133.1572 359.0959 14.40511278229828
Epoch (UTC): 17 December 2014 04:20:50
Eccentricity: 0.0008312
inclination: 98.7212°
perigee height: 751 km
apogee height: 763 km
right ascension of ascending node: 330.6102°
argument of perigee: 133.1572°
revolutions per day: 14.40511278
mean anomaly at epoch: 359.0959°
orbit number at epoch: 22982

The dashed part of the orbit path shows where the satellite is in the earth's shadow,  

DLR